TimePST,TemperatureF,Dew PointF,Humidity,Sea Level PressureIn,VisibilityMPH,Wind Direction,Wind SpeedMPH,Gust SpeedMPH,PrecipitationIn,Events,Conditions,WindDirDegrees,DateUTC
12:15 AM,37.4,30.2,75,30.00,10.0,Calm,Calm,-,N/A,,Mostly Cloudy,0,2013-11-03 07:15:00
12:35 AM,33.8,28.4,81,30.01,10.0,ENE,3.5,-,N/A,,Scattered Clouds,70,2013-11-03 07:35:00
12:55 AM,35.6,30.2,81,30.01,10.0,South,3.5,-,N/A,,Scattered Clouds,180,2013-11-03 07:55:00
1:15 AM,33.8,30.2,87,30.01,10.0,South,3.5,-,N/A,,Overcast,180,2013-11-03 08:15:00
1:35 AM,35.6,30.2,81,30.01,10.0,Calm,Calm,-,N/A,,Mostly Cloudy,0,2013-11-03 08:35:00
1:55 AM,32.0,28.4,87,30.00,10.0,SW,4.6,-,N/A,,Scattered Clouds,220,2013-11-03 08:55:00
1:15 AM,37.4,32.0,81,29.99,10.0,Calm,Calm,-,N/A,,Mostly Cloudy,0,2013-11-03 09:15:00
1:35 AM,35.6,32.0,87,29.99,10.0,Calm,Calm,-,N/A,,Mostly Cloudy,0,2013-11-03 09:35:00
1:55 AM,32.0,28.4,87,29.99,10.0,Calm,Calm,-,N/A,,Partly Cloudy,0,2013-11-03 09:55:00
2:15 AM,32.0,28.4,87,29.99,10.0,Calm,Calm,-,N/A,,Partly Cloudy,0,2013-11-03 10:15:00
2:35 AM,32.0,30.2,93,29.99,10.0,Calm,Calm,-,N/A,,Mostly Cloudy,0,2013-11-03 10:35:00
2:55 AM,32.0,30.2,93,29.99,10.0,NNW,4.6,-,N/A,,Mostly Cloudy,330,2013-11-03 10:55:00
3:15 AM,32.0,30.2,93,29.99,10.0,NNE,3.5,-,N/A,,Mostly Cloudy,20,2013-11-03 11:15:00
3:35 AM,28.4,28.4,100,30.01,10.0,NW,5.8,-,N/A,,Mostly Cloudy,320,2013-11-03 11:35:00
3:55 AM,32.0,26.6,80,30.01,10.0,ENE,4.6,-,N/A,,Scattered Clouds,60,2013-11-03 11:55:00
4:15 AM,32.0,26.6,80,30.02,10.0,NE,5.8,-,N/A,,Scattered Clouds,50,2013-11-03 12:15:00
4:35 AM,32.0,24.8,75,30.02,10.0,NNE,4.6,-,N/A,,Partly Cloudy,20,2013-11-03 12:35:00
4:55 AM,30.2,24.8,80,30.03,10.0,North,6.9,-,N/A,,Partly Cloudy,360,2013-11-03 12:55:00
5:15 AM,30.2,24.8,80,30.03,10.0,North,4.6,-,N/A,,Mostly Cloudy,360,2013-11-03 13:15:00
5:35 AM,32.0,24.8,75,30.04,10.0,Calm,Calm,-,N/A,,Overcast,0,2013-11-03 13:35:00
6:55 AM,30.2,26.6,86,30.05,10.0,Calm,Calm,-,N/A,,Overcast,0,2013-11-03 14:55:00
7:45 AM,32.0,24.8,75,30.06,10.0,Calm,Calm,-,N/A,,Overcast,0,2013-11-03 15:45:00
8:55 AM,33.8,24.8,70,30.07,10.0,Calm,Calm,-,N/A,,Mostly Cloudy,0,2013-11-03 16:55:00
9:55 AM,37.4,24.8,60,30.06,10.0,NNE,6.9,-,N/A,,Scattered Clouds,20,2013-11-03 17:55:00
10:55 AM,39.2,24.8,56,30.07,10.0,North,6.9,-,N/A,,Scattered Clouds,10,2013-11-03 18:55:00
11:50 AM,41.0,24.8,53,30.05,10.0,NNE,5.8,-,N/A,,Scattered Clouds,20,2013-11-03 19:50:00
12:45 PM,41.0,24.8,53,30.02,10.0,NE,4.6,-,N/A,,Mostly Cloudy,50,2013-11-03 20:45:00
1:55 PM,44.6,24.8,46,30.01,10.0,ENE,3.5,-,N/A,,Overcast,70,2013-11-03 21:55:00
2:45 PM,42.8,23.0,46,30.01,10.0,NE,6.9,-,N/A,,Overcast,40,2013-11-03 22:45:00
3:55 PM,41.0,19.4,42,29.98,10.0,NE,8.1,-,N/A,,Overcast,50,2013-11-03 23:55:00
4:45 PM,37.4,19.4,48,29.97,10.0,NE,5.8,-,N/A,,Overcast,50,2013-11-04 00:45:00
4:55 PM,37.4,19.4,48,29.97,10.0,NE,6.9,-,N/A,,Clear,50,2013-11-04 00:55:00
5:15 PM,37.4,17.6,45,29.97,10.0,ENE,5.8,-,N/A,,Clear,60,2013-11-04 01:15:00
5:35 PM,35.6,17.6,48,29.97,10.0,ENE,4.6,-,N/A,,Clear,70,2013-11-04 01:35:00
5:55 PM,35.6,17.6,48,29.98,10.0,NNE,5.8,-,N/A,,Clear,30,2013-11-04 01:55:00
6:15 PM,35.6,17.6,48,29.99,10.0,Calm,Calm,-,N/A,,Clear,0,2013-11-04 02:15:00
6:35 PM,35.6,17.6,48,29.99,10.0,North,4.6,-,N/A,,Partly Cloudy,360,2013-11-04 02:35:00
6:55 PM,32.0,15.8,51,29.99,10.0,North,4.6,-,N/A,,Scattered Clouds,360,2013-11-04 02:55:00
7:15 PM,32.0,15.8,51,29.98,10.0,NE,4.6,-,N/A,,Partly Cloudy,40,2013-11-04 03:15:00
7:35 PM,32.0,15.8,51,29.97,10.0,Calm,Calm,-,N/A,,Partly Cloudy,0,2013-11-04 03:35:00
7:55 PM,32.0,15.8,51,29.98,10.0,NNW,3.5,-,N/A,,Clear,330,2013-11-04 03:55:00
8:15 PM,32.0,15.8,51,29.98,10.0,Calm,Calm,-,N/A,,Partly Cloudy,0,2013-11-04 04:15:00
8:35 PM,32.0,17.6,55,29.98,10.0,Calm,Calm,-,N/A,,Mostly Cloudy,0,2013-11-04 04:35:00
8:55 PM,30.2,19.4,64,29.99,10.0,Calm,Calm,-,N/A,,Mostly Cloudy,0,2013-11-04 04:55:00
9:15 PM,32.0,19.4,60,30.00,10.0,Calm,Calm,-,N/A,,Mostly Cloudy,0,2013-11-04 05:15:00
9:35 PM,32.0,19.4,60,30.00,10.0,SE,3.5,-,N/A,,Overcast,140,2013-11-04 05:35:00
9:55 PM,28.4,21.2,74,29.99,10.0,South,4.6,-,N/A,,Overcast,180,2013-11-04 05:55:00
10:15 PM,28.4,21.2,74,29.98,10.0,Calm,Calm,-,N/A,,Overcast,0,2013-11-04 06:15:00
10:35 PM,30.2,21.2,69,29.99,10.0,Calm,Calm,-,N/A,,Overcast,0,2013-11-04 06:35:00
10:55 PM,30.2,19.4,64,29.99,10.0,Calm,Calm,-,N/A,,Overcast,0,2013-11-04 06:55:00